Time,TemperatureF,DewpointF,PressureIn,WindDirection,WindDirectionDegrees,WindSpeedMPH,WindSpeedGustMPH,Humidity,HourlyPrecipIn,Conditions,Clouds,dailyrainin,SoftwareType,DateUTC
2013-07-07 00:01:00,78.9,77.0,30.25,SW,216,13.0,13.0,94,0.00,,---,0.00,VWS V14.00,2013-07-07 04:01:00,
2013-07-07 00:06:00,78.8,77.2,30.25,SW,228,6.0,13.0,95,0.00,,---,0.00,VWS V14.00,2013-07-07 04:06:00,
2013-07-07 00:11:00,78.8,77.2,30.25,SW,220,11.0,13.0,95,0.00,,---,0.00,VWS V14.00,2013-07-07 04:11:00,
2013-07-07 00:16:00,78.8,77.2,30.25,SW,214,6.0,13.0,95,0.00,,---,0.00,VWS V14.00,2013-07-07 04:16:00,
2013-07-07 00:21:00,78.8,77.6,30.24,SW,230,7.0,13.0,96,0.00,,---,0.00,VWS V14.00,2013-07-07 04:21:00,
2013-07-07 00:26:00,78.8,77.6,30.24,SW,214,8.0,13.0,96,0.00,,---,0.00,VWS V14.00,2013-07-07 04:26:00,
2013-07-07 00:31:00,78.8,77.9,30.24,SW,224,8.0,8.0,97,0.00,,---,0.00,VWS V14.00,2013-07-07 04:31:00,
2013-07-07 00:36:00,78.8,78.2,30.24,SW,222,8.0,10.0,98,0.00,,---,0.00,VWS V14.00,2013-07-07 04:36:00,
2013-07-07 00:41:00,78.8,78.2,30.24,SW,224,12.0,12.0,98,0.00,,---,0.00,VWS V14.00,2013-07-07 04:41:00,
2013-07-07 00:46:00,78.8,77.6,30.24,WSW,252,8.0,13.0,96,0.00,,---,0.00,VWS V14.00,2013-07-07 04:46:00,
2013-07-07 00:51:00,78.7,77.2,30.24,WSW,237,10.0,13.0,95,0.00,,---,0.00,VWS V14.00,2013-07-07 04:51:00,
2013-07-07 00:56:00,78.7,77.5,30.24,SW,234,6.0,13.0,96,0.00,,---,0.00,VWS V14.00,2013-07-07 04:56:00,
2013-07-07 01:01:00,78.6,77.7,30.24,SW,217,5.0,8.0,97,0.00,,---,0.00,VWS V14.00,2013-07-07 05:01:00,
2013-07-07 01:06:00,78.6,77.7,30.24,WSW,239,8.0,10.0,97,0.00,,---,0.00,VWS V14.00,2013-07-07 05:06:00,
2013-07-07 01:11:00,78.6,77.7,30.24,SW,233,7.0,10.0,97,0.00,,---,0.00,VWS V14.00,2013-07-07 05:11:00,
2013-07-07 01:16:00,78.5,77.3,30.24,SW,223,8.0,11.0,96,0.00,,---,0.00,VWS V14.00,2013-07-07 05:16:00,
2013-07-07 01:21:00,78.5,77.3,30.24,SW,220,6.0,11.0,96,0.00,,---,0.00,VWS V14.00,2013-07-07 05:21:00,
2013-07-07 01:26:00,78.5,77.6,30.24,SW,232,7.0,11.0,97,0.00,,---,0.00,VWS V14.00,2013-07-07 05:26:00,
2013-07-07 01:31:00,78.5,76.9,30.24,SW,233,8.0,10.0,95,0.00,,---,0.00,VWS V14.00,2013-07-07 05:31:00,
2013-07-07 01:36:00,78.5,76.9,30.24,SW,214,11.0,11.0,95,0.00,,---,0.00,VWS V14.00,2013-07-07 05:36:00,
2013-07-07 01:41:00,78.5,77.3,30.24,SW,229,11.0,13.0,96,0.00,,---,0.00,VWS V14.00,2013-07-07 05:41:00,
2013-07-07 01:46:00,78.5,76.9,30.24,SSW,204,6.0,13.0,95,0.00,,---,0.00,VWS V14.00,2013-07-07 05:46:00,
2013-07-07 01:51:00,78.5,76.9,30.24,SSW,211,9.0,13.0,95,0.00,,---,0.00,VWS V14.00,2013-07-07 05:51:00,
2013-07-07 01:56:00,78.4,76.8,30.24,SW,217,7.0,14.0,95,0.00,,---,0.00,VWS V14.00,2013-07-07 05:56:00,
2013-07-07 02:01:00,78.3,77.1,30.23,SSW,209,8.0,10.0,96,0.00,,---,0.00,VWS V14.00,2013-07-07 06:01:00,
2013-07-07 02:06:00,78.3,76.4,30.24,SW,226,10.0,15.0,94,0.00,,---,0.00,VWS V14.00,2013-07-07 06:06:00,
2013-07-07 02:11:00,78.2,76.3,30.23,SW,218,6.0,15.0,94,0.00,,---,0.00,VWS V14.00,2013-07-07 06:11:00,
2013-07-07 02:16:00,78.2,76.7,30.24,SW,221,6.0,15.0,95,0.00,,---,0.00,VWS V14.00,2013-07-07 06:16:00,
2013-07-07 02:21:00,78.1,76.2,30.24,SW,214,8.0,15.0,94,0.00,,---,0.00,VWS V14.00,2013-07-07 06:21:00,
2013-07-07 02:26:00,78.1,76.6,30.24,SW,225,8.0,15.0,95,0.00,,---,0.00,VWS V14.00,2013-07-07 06:26:00,
2013-07-07 02:31:00,78.1,76.2,30.23,WSW,243,12.0,12.0,94,0.00,,---,0.00,VWS V14.00,2013-07-07 06:31:00,
2013-07-07 02:36:00,78.0,76.1,30.23,WSW,245,9.0,12.0,94,0.00,,---,0.00,VWS V14.00,2013-07-07 06:36:00,
2013-07-07 02:41:00,77.9,75.7,30.24,SW,234,7.0,12.0,93,0.00,,---,0.00,VWS V14.00,2013-07-07 06:41:00,
2013-07-07 02:46:00,77.8,75.9,30.23,SW,225,6.0,12.0,94,0.00,,---,0.00,VWS V14.00,2013-07-07 06:46:00,
2013-07-07 02:51:00,77.8,75.9,30.24,SW,232,4.0,13.0,94,0.00,,---,0.00,VWS V14.00,2013-07-07 06:51:00,
2013-07-07 02:56:00,77.7,75.8,30.23,SW,231,5.0,13.0,94,0.00,,---,0.00,VWS V14.00,2013-07-07 06:56:00,
2013-07-07 03:01:00,77.7,75.8,30.23,SW,234,8.0,11.0,94,0.00,,---,0.00,VWS V14.00,2013-07-07 07:01:00,
2013-07-07 03:06:00,77.6,75.7,30.23,SW,229,9.0,12.0,94,0.00,,---,0.00,VWS V14.00,2013-07-07 07:06:00,
2013-07-07 03:11:00,77.6,75.7,30.23,SW,231,5.0,12.0,94,0.00,,---,0.00,VWS V14.00,2013-07-07 07:11:00,
2013-07-07 03:16:00,77.7,75.8,30.23,SW,230,8.0,12.0,94,0.00,,---,0.00,VWS V14.00,2013-07-07 07:16:00,
2013-07-07 03:21:00,77.6,75.7,30.23,SW,230,6.0,12.0,94,0.00,,---,0.00,VWS V14.00,2013-07-07 07:21:00,
2013-07-07 03:26:00,77.6,75.7,30.23,SW,233,7.0,12.0,94,0.00,,---,0.00,VWS V14.00,2013-07-07 07:26:00,
2013-07-07 03:31:00,77.6,76.1,30.23,WSW,237,5.0,6.0,95,0.00,,---,0.00,VWS V14.00,2013-07-07 07:31:00,
2013-07-07 03:36:00,77.5,75.3,30.23,SW,225,8.0,11.0,93,0.00,,---,0.00,VWS V14.00,2013-07-07 07:36:00,
2013-07-07 03:41:00,77.4,75.2,30.23,SW,230,6.0,12.0,93,0.00,,---,0.00,VWS V14.00,2013-07-07 07:41:00,
2013-07-07 03:46:00,77.4,75.5,30.23,SW,226,5.0,12.0,94,0.00,,---,0.00,VWS V14.00,2013-07-07 07:46:00,
2013-07-07 03:51:00,77.4,75.5,30.23,SW,230,6.0,12.0,94,0.00,,---,0.00,VWS V14.00,2013-07-07 07:51:00,
2013-07-07 03:56:00,77.3,75.1,30.23,SW,226,4.0,12.0,93,0.00,,---,0.00,VWS V14.00,2013-07-07 07:56:00,
2013-07-07 04:01:00,77.3,75.1,30.23,SW,231,8.0,10.0,93,0.00,,---,0.00,VWS V14.00,2013-07-07 08:01:00,
2013-07-07 04:06:00,77.3,75.1,30.23,SW,221,10.0,10.0,93,0.00,,---,0.00,VWS V14.00,2013-07-07 08:06:00,
2013-07-07 04:11:00,77.2,75.3,30.23,SW,224,6.0,11.0,94,0.00,,---,0.00,VWS V14.00,2013-07-07 08:11:00,
2013-07-07 04:16:00,77.2,75.3,30.23,SW,227,5.0,11.0,94,0.00,,---,0.00,VWS V14.00,2013-07-07 08:16:00,
2013-07-07 04:21:00,77.2,75.3,30.23,WSW,245,8.0,11.0,94,0.00,,---,0.00,VWS V14.00,2013-07-07 08:21:00,
2013-07-07 04:26:00,77.2,75.3,30.23,SW,216,6.0,11.0,94,0.00,,---,0.00,VWS V14.00,2013-07-07 08:26:00,
2013-07-07 04:31:00,77.2,75.3,30.23,SW,225,9.0,12.0,94,0.00,,---,0.00,VWS V14.00,2013-07-07 08:31:00,
2013-07-07 04:36:00,77.2,75.0,30.23,SW,234,6.0,12.0,93,0.00,,---,0.00,VWS V14.00,2013-07-07 08:36:00,
2013-07-07 04:41:00,77.2,75.3,30.23,WSW,246,8.0,12.0,94,0.00,,---,0.00,VWS V14.00,2013-07-07 08:41:00,
2013-07-07 04:46:00,77.2,75.3,30.23,WSW,237,5.0,12.0,94,0.00,,---,0.00,VWS V14.00,2013-07-07 08:46:00,
2013-07-07 04:51:00,77.2,75.3,30.23,SW,229,8.0,13.0,94,0.00,,---,0.00,VWS V14.00,2013-07-07 08:51:00,
2013-07-07 04:56:00,77.3,75.4,30.23,SW,228,7.0,13.0,94,0.00,,---,0.00,VWS V14.00,2013-07-07 08:56:00,
2013-07-07 05:01:00,77.2,75.3,30.23,SW,231,8.0,9.0,94,0.00,,---,0.00,VWS V14.00,2013-07-07 09:01:00,
2013-07-07 05:06:00,77.2,75.3,30.23,WSW,239,8.0,9.0,94,0.00,,---,0.00,VWS V14.00,2013-07-07 09:06:00,
2013-07-07 05:11:00,77.2,75.3,30.23,SSW,213,5.0,9.0,94,0.00,,---,0.00,VWS V14.00,2013-07-07 09:11:00,
2013-07-07 05:16:00,77.2,75.7,30.23,SW,214,1.0,9.0,95,0.00,,---,0.00,VWS V14.00,2013-07-07 09:16:00,
2013-07-07 05:21:00,77.1,75.6,30.23,SW,223,5.0,9.0,95,0.00,,---,0.00,VWS V14.00,2013-07-07 09:21:00,
2013-07-07 05:26:00,77.1,75.6,30.23,SW,224,7.0,9.0,95,0.00,,---,0.00,VWS V14.00,2013-07-07 09:26:00,
2013-07-07 05:31:00,77.1,75.2,30.23,SW,236,4.0,8.0,94,0.00,,---,0.00,VWS V14.00,2013-07-07 09:31:00,
2013-07-07 05:36:00,77.1,75.2,30.23,SW,228,5.0,8.0,94,0.00,,---,0.00,VWS V14.00,2013-07-07 09:36:00,
2013-07-07 05:41:00,77.0,75.1,30.23,SW,230,6.0,11.0,94,0.00,,---,0.00,VWS V14.00,2013-07-07 09:41:00,
2013-07-07 05:46:00,77.0,75.5,30.23,SW,215,7.0,11.0,95,0.00,,---,0.00,VWS V14.00,2013-07-07 09:46:00,
2013-07-07 05:51:00,77.0,75.1,30.24,WSW,246,6.0,11.0,94,0.00,,---,0.00,VWS V14.00,2013-07-07 09:51:00,
2013-07-07 05:56:00,77.0,75.5,30.23,SW,232,5.0,11.0,95,0.00,,---,0.00,VWS V14.00,2013-07-07 09:56:00,
2013-07-07 06:01:00,77.0,75.5,30.24,SW,235,6.0,7.0,95,0.00,,---,0.00,VWS V14.00,2013-07-07 10:01:00,
2013-07-07 06:06:00,77.0,75.5,30.23,SSW,212,5.0,9.0,95,0.00,,---,0.00,VWS V14.00,2013-07-07 10:06:00,
2013-07-07 06:11:00,77.0,75.5,30.24,SW,220,5.0,9.0,95,0.00,,---,0.00,VWS V14.00,2013-07-07 10:11:00,
2013-07-07 06:16:00,77.0,75.5,30.23,SW,219,6.0,9.0,95,0.00,,---,0.00,VWS V14.00,2013-07-07 10:16:00,
2013-07-07 06:21:00,77.0,75.5,30.24,SW,225,7.0,9.0,95,0.00,,---,0.00,VWS V14.00,2013-07-07 10:21:00,
2013-07-07 06:26:00,77.0,75.5,30.24,SSW,213,5.0,9.0,95,0.00,,---,0.00,VWS V14.00,2013-07-07 10:26:00,
2013-07-07 06:31:00,77.0,75.8,30.24,SSW,206,5.0,7.0,96,0.00,,---,0.00,VWS V14.00,2013-07-07 10:31:00,
2013-07-07 06:36:00,77.1,76.2,30.24,SSW,199,2.0,8.0,97,0.00,,---,0.00,VWS V14.00,2013-07-07 10:36:00,
2013-07-07 06:41:00,77.2,76.0,30.24,SW,217,4.0,8.0,96,0.00,,---,0.00,VWS V14.00,2013-07-07 10:41:00,
2013-07-07 06:46:00,77.3,76.4,30.24,SW,230,6.0,9.0,97,0.00,,---,0.00,VWS V14.00,2013-07-07 10:46:00,
2013-07-07 06:51:00,77.4,76.2,30.24,SW,216,6.0,10.0,96,0.00,,---,0.00,VWS V14.00,2013-07-07 10:51:00,
2013-07-07 06:56:00,77.5,75.6,30.24,SW,214,7.0,10.0,94,0.00,,---,0.00,VWS V14.00,2013-07-07 10:56:00,
2013-07-07 07:01:00,77.5,75.6,30.24,SW,215,7.0,8.0,94,0.00,,---,0.00,VWS V14.00,2013-07-07 11:01:00,
2013-07-07 07:06:00,77.6,76.4,30.25,SW,221,4.0,10.0,96,0.00,,---,0.00,VWS V14.00,2013-07-07 11:06:00,
2013-07-07 07:11:00,77.6,76.1,30.25,SSW,194,4.0,10.0,95,0.00,,---,0.00,VWS V14.00,2013-07-07 11:11:00,
2013-07-07 07:16:00,77.6,76.4,30.25,SSW,204,2.0,10.0,96,0.00,,---,0.00,VWS V14.00,2013-07-07 11:16:00,
2013-07-07 07:21:00,77.7,76.5,30.25,SSW,203,5.0,10.0,96,0.00,,---,0.00,VWS V14.00,2013-07-07 11:21:00,
2013-07-07 07:26:00,77.7,76.5,30.25,SSW,204,5.0,10.0,96,0.00,,---,0.00,VWS V14.00,2013-07-07 11:26:00,
2013-07-07 07:31:00,77.7,76.5,30.25,SW,214,5.0,9.0,96,0.00,,---,0.00,VWS V14.00,2013-07-07 11:31:00,
2013-07-07 07:36:00,77.9,76.7,30.25,SW,219,8.0,9.0,96,0.00,,---,0.00,VWS V14.00,2013-07-07 11:36:00,
2013-07-07 07:41:00,78.0,76.8,30.25,SSW,192,5.0,13.0,96,0.00,,---,0.00,VWS V14.00,2013-07-07 11:41:00,
2013-07-07 07:46:00,78.1,76.9,30.25,SW,220,8.0,13.0,96,0.00,,---,0.00,VWS V14.00,2013-07-07 11:46:00,
2013-07-07 07:51:00,78.2,77.0,30.25,SSW,200,5.0,13.0,96,0.00,,---,0.00,VWS V14.00,2013-07-07 11:51:00,
2013-07-07 07:56:00,78.4,76.8,30.25,SSW,202,5.0,13.0,95,0.00,,---,0.00,VWS V14.00,2013-07-07 11:56:00,
2013-07-07 08:01:00,78.5,76.6,30.26,SW,221,8.0,11.0,94,0.00,,---,0.00,VWS V14.00,2013-07-07 12:01:00,
2013-07-07 08:06:00,78.6,76.7,30.25,SW,216,8.0,11.0,94,0.00,,---,0.00,VWS V14.00,2013-07-07 12:06:00,
2013-07-07 08:11:00,78.5,76.3,30.26,SW,215,11.0,11.0,93,0.00,,---,0.00,VWS V14.00,2013-07-07 12:11:00,
2013-07-07 08:16:00,78.6,76.4,30.26,SW,230,8.0,12.0,93,0.00,,---,0.00,VWS V14.00,2013-07-07 12:16:00,
2013-07-07 08:21:00,78.6,76.4,30.26,SSW,201,4.0,12.0,93,0.00,,---,0.00,VWS V14.00,2013-07-07 12:21:00,
2013-07-07 08:26:00,78.6,76.4,30.25,SSW,206,5.0,12.0,93,0.00,,---,0.00,VWS V14.00,2013-07-07 12:26:00,
2013-07-07 08:31:00,78.7,76.8,30.26,SW,217,8.0,9.0,94,0.00,,---,0.00,VWS V14.00,2013-07-07 12:31:00,
2013-07-07 08:36:00,78.8,76.6,30.25,SW,225,7.0,11.0,93,0.00,,---,0.00,VWS V14.00,2013-07-07 12:36:00,
2013-07-07 08:41:00,78.9,76.7,30.25,SW,236,5.0,11.0,93,0.00,,---,0.00,VWS V14.00,2013-07-07 12:41:00,
2013-07-07 08:46:00,79.0,77.1,30.26,SSW,194,5.0,11.0,94,0.00,,---,0.00,VWS V14.00,2013-07-07 12:46:00,
2013-07-07 08:51:00,79.1,77.2,30.26,SW,228,12.0,13.0,94,0.00,,---,0.00,VWS V14.00,2013-07-07 12:51:00,
2013-07-07 08:56:00,79.2,76.3,30.25,WSW,237,9.0,13.0,91,0.00,,---,0.00,VWS V14.00,2013-07-07 12:56:00,
2013-07-07 09:01:00,79.3,76.4,30.25,SW,217,7.0,9.0,91,0.00,,---,0.00,VWS V14.00,2013-07-07 13:01:00,
2013-07-07 09:06:00,79.2,76.0,30.25,SW,227,9.0,12.0,90,0.00,,---,0.00,VWS V14.00,2013-07-07 13:06:00,
2013-07-07 09:11:00,79.3,76.4,30.25,SW,214,9.0,12.0,91,0.00,,---,0.00,VWS V14.00,2013-07-07 13:11:00,
2013-07-07 09:16:00,79.5,76.3,30.25,SW,216,6.0,12.0,90,0.00,,---,0.00,VWS V14.00,2013-07-07 13:16:00,
2013-07-07 09:21:00,79.6,76.4,30.25,SSW,196,5.0,13.0,90,0.00,,---,0.00,VWS V14.00,2013-07-07 13:21:00,
2013-07-07 09:26:00,79.6,76.8,30.25,SSW,202,6.0,13.0,91,0.00,,---,0.00,VWS V14.00,2013-07-07 13:26:00,
2013-07-07 09:31:00,79.8,76.9,30.25,SSW,203,6.0,10.0,91,0.00,,---,0.00,VWS V14.00,2013-07-07 13:31:00,
2013-07-07 09:36:00,80.0,76.8,30.26,SSW,209,8.0,12.0,90,0.00,,---,0.00,VWS V14.00,2013-07-07 13:36:00,
2013-07-07 09:41:00,80.0,76.5,30.25,SW,231,7.0,12.0,89,0.00,,---,0.00,VWS V14.00,2013-07-07 13:41:00,
2013-07-07 09:46:00,80.2,77.0,30.26,SSW,210,9.0,12.0,90,0.00,,---,0.00,VWS V14.00,2013-07-07 13:46:00,
2013-07-07 09:51:00,80.4,76.9,30.26,WSW,238,11.0,14.0,89,0.00,,---,0.00,VWS V14.00,2013-07-07 13:51:00,
2013-07-07 09:56:00,80.3,77.1,30.25,SW,232,8.0,14.0,90,0.00,,---,0.00,VWS V14.00,2013-07-07 13:56:00,
2013-07-07 10:01:00,80.1,76.9,30.26,SSW,205,6.0,11.0,90,0.00,,---,0.00,VWS V14.00,2013-07-07 14:01:00,
2013-07-07 10:06:00,80.4,77.2,30.25,SW,216,9.0,13.0,90,0.00,,---,0.00,VWS V14.00,2013-07-07 14:06:00,
2013-07-07 10:11:00,80.5,77.0,30.25,SW,231,9.0,14.0,89,0.00,,---,0.00,VWS V14.00,2013-07-07 14:11:00,
2013-07-07 10:16:00,80.6,77.4,30.25,SW,234,11.0,14.0,90,0.00,,---,0.00,VWS V14.00,2013-07-07 14:16:00,
2013-07-07 10:21:00,80.6,76.7,30.25,SW,230,11.0,14.0,88,0.00,,---,0.00,VWS V14.00,2013-07-07 14:21:00,
2013-07-07 10:26:00,80.6,77.4,30.25,SSW,200,8.0,14.0,90,0.00,,---,0.00,VWS V14.00,2013-07-07 14:26:00,
2013-07-07 10:31:00,80.8,76.9,30.25,SSW,203,7.0,10.0,88,0.00,,---,0.00,VWS V14.00,2013-07-07 14:31:00,
2013-07-07 10:36:00,81.2,77.7,30.25,WSW,244,14.0,15.0,89,0.00,,---,0.00,VWS V14.00,2013-07-07 14:36:00,
2013-07-07 10:41:00,81.2,77.0,30.25,SW,225,10.0,17.0,87,0.00,,---,0.00,VWS V14.00,2013-07-07 14:41:00,
2013-07-07 10:46:00,81.4,77.2,30.25,SW,224,11.0,17.0,87,0.00,,---,0.00,VWS V14.00,2013-07-07 14:46:00,
2013-07-07 10:51:00,81.5,76.9,30.25,SSW,197,6.0,17.0,86,0.00,,---,0.00,VWS V14.00,2013-07-07 14:51:00,
2013-07-07 10:56:00,81.5,76.9,30.25,SW,220,11.0,17.0,86,0.00,,---,0.00,VWS V14.00,2013-07-07 14:56:00,
2013-07-07 11:00:00,81.7,77.5,30.25,WSW,237,10.0,13.0,87,0.00,,---,0.00,VWS V14.00,2013-07-07 15:00:00,
2013-07-07 11:05:00,81.9,77.3,30.25,SSW,212,11.0,17.0,86,0.00,,---,0.00,VWS V14.00,2013-07-07 15:05:00,
2013-07-07 11:10:00,82.1,77.5,30.25,SW,224,11.0,17.0,86,0.00,,---,0.00,VWS V14.00,2013-07-07 15:10:00,
2013-07-07 11:15:00,82.2,77.6,30.25,SW,221,10.0,17.0,86,0.00,,---,0.00,VWS V14.00,2013-07-07 15:15:00,
2013-07-07 11:20:00,82.3,77.0,30.25,SW,226,11.0,17.0,84,0.00,,---,0.00,VWS V14.00,2013-07-07 15:20:00,
2013-07-07 11:26:00,82.4,77.8,30.25,WSW,239,12.0,17.0,86,0.00,,---,0.00,VWS V14.00,2013-07-07 15:26:00,
2013-07-07 11:31:00,82.5,78.2,30.25,WSW,237,11.0,14.0,87,0.00,,---,0.00,VWS V14.00,2013-07-07 15:31:00,
2013-07-07 11:36:00,82.5,77.9,30.25,SW,222,13.0,17.0,86,0.00,,---,0.00,VWS V14.00,2013-07-07 15:36:00,
2013-07-07 11:40:00,82.6,77.6,30.25,SW,225,17.0,18.0,85,0.00,,---,0.00,VWS V14.00,2013-07-07 15:40:00,
2013-07-07 11:45:00,82.6,78.0,30.24,SSW,203,8.0,18.0,86,0.00,,---,0.00,VWS V14.00,2013-07-07 15:45:00,
2013-07-07 11:50:00,82.8,78.2,30.25,SSW,204,7.0,18.0,86,0.00,,---,0.00,VWS V14.00,2013-07-07 15:50:00,
2013-07-07 11:55:00,83.0,78.0,30.25,SSW,213,10.0,18.0,85,0.00,,---,0.00,VWS V14.00,2013-07-07 15:55:00,
2013-07-07 12:00:00,83.1,77.8,30.25,SW,232,14.0,17.0,84,0.00,,---,0.00,VWS V14.00,2013-07-07 16:00:00,
2013-07-07 12:05:00,83.2,77.5,30.24,SW,225,12.0,18.0,83,0.00,,---,0.00,VWS V14.00,2013-07-07 16:05:00,
2013-07-07 12:10:00,83.3,77.6,30.24,SSW,208,8.0,18.0,83,0.00,,---,0.00,VWS V14.00,2013-07-07 16:10:00,
2013-07-07 12:15:00,83.5,77.1,30.24,SW,219,13.0,18.0,81,0.00,,---,0.00,VWS V14.00,2013-07-07 16:15:00,
2013-07-07 12:20:00,83.6,77.5,30.24,SSW,213,13.0,19.0,82,0.00,,---,0.00,VWS V14.00,2013-07-07 16:20:00,
2013-07-07 12:25:00,83.6,77.9,30.24,SW,223,11.0,19.0,83,0.00,,---,0.00,VWS V14.00,2013-07-07 16:25:00,
2013-07-07 12:30:00,83.8,77.7,30.25,SSW,212,9.0,14.0,82,0.00,,---,0.00,VWS V14.00,2013-07-07 16:30:00,
2013-07-07 12:35:00,83.8,77.3,30.24,SW,236,12.0,19.0,81,0.00,,---,0.00,VWS V14.00,2013-07-07 16:35:00,
2013-07-07 12:40:00,83.7,78.3,30.24,SW,221,16.0,19.0,84,0.00,,---,0.00,VWS V14.00,2013-07-07 16:40:00,
2013-07-07 12:45:00,84.0,78.3,30.25,SSW,212,11.0,19.0,83,0.00,,---,0.00,VWS V14.00,2013-07-07 16:45:00,
2013-07-07 12:50:00,84.3,78.2,30.24,SSW,212,12.0,19.0,82,0.00,,---,0.00,VWS V14.00,2013-07-07 16:50:00,
2013-07-07 12:55:00,84.4,77.9,30.24,SW,222,13.0,19.0,81,0.00,,---,0.00,VWS V14.00,2013-07-07 16:55:00,
2013-07-07 13:00:00,84.8,78.3,30.24,WSW,237,14.0,15.0,81,0.00,,---,0.00,VWS V14.00,2013-07-07 17:00:00,
2013-07-07 13:05:00,84.8,78.7,30.24,SW,226,18.0,18.0,82,0.00,,---,0.00,VWS V14.00,2013-07-07 17:05:00,
2013-07-07 13:10:00,84.8,77.9,30.24,WSW,241,9.0,18.0,80,0.00,,---,0.00,VWS V14.00,2013-07-07 17:10:00,
2013-07-07 13:15:00,85.0,78.9,30.24,SW,235,10.0,18.0,82,0.00,,---,0.00,VWS V14.00,2013-07-07 17:15:00,
2013-07-07 13:20:00,85.1,78.2,30.24,SW,234,13.0,18.0,80,0.00,,---,0.00,VWS V14.00,2013-07-07 17:20:00,
2013-07-07 13:25:00,85.0,78.1,30.24,SW,218,12.0,19.0,80,0.00,,---,0.00,VWS V14.00,2013-07-07 17:25:00,
2013-07-07 13:30:00,85.1,79.0,30.23,WSW,251,14.0,14.0,82,0.00,,---,0.00,VWS V14.00,2013-07-07 17:30:00,
2013-07-07 13:35:00,85.0,78.5,30.23,WSW,238,10.0,15.0,81,0.00,,---,0.00,VWS V14.00,2013-07-07 17:35:00,
2013-07-07 13:40:00,85.1,78.2,30.23,SW,217,10.0,18.0,80,0.00,,---,0.00,VWS V14.00,2013-07-07 17:40:00,
2013-07-07 13:45:00,85.3,77.7,30.23,SW,232,14.0,18.0,78,0.00,,---,0.00,VWS V14.00,2013-07-07 17:45:00,
2013-07-07 13:50:00,85.5,79.0,30.23,WSW,241,12.0,18.0,81,0.00,,---,0.00,VWS V14.00,2013-07-07 17:50:00,
2013-07-07 13:55:00,85.6,79.1,30.23,WSW,241,10.0,18.0,81,0.00,,---,0.00,VWS V14.00,2013-07-07 17:55:00,
2013-07-07 14:00:00,85.6,78.7,30.23,WSW,237,12.0,13.0,80,0.00,,---,0.00,VWS V14.00,2013-07-07 18:00:00,
2013-07-07 14:05:00,85.6,78.3,30.23,SW,231,17.0,18.0,79,0.00,,---,0.00,VWS V14.00,2013-07-07 18:05:00,
2013-07-07 14:10:00,85.5,77.9,30.23,SSW,213,14.0,18.0,78,0.00,,---,0.00,VWS V14.00,2013-07-07 18:10:00,
2013-07-07 14:15:00,85.6,78.3,30.23,SSW,199,11.0,18.0,79,0.00,,---,0.00,VWS V14.00,2013-07-07 18:15:00,
2013-07-07 14:20:00,85.8,78.2,30.22,SW,228,13.0,18.0,78,0.00,,---,0.00,VWS V14.00,2013-07-07 18:20:00,
2013-07-07 14:25:00,85.9,77.9,30.22,SW,215,12.0,18.0,77,0.00,,---,0.00,VWS V14.00,2013-07-07 18:25:00,
2013-07-07 14:30:00,86.0,78.7,30.22,SW,233,15.0,17.0,79,0.00,,---,0.00,VWS V14.00,2013-07-07 18:30:00,
2013-07-07 14:35:00,86.0,79.5,30.22,SSW,199,7.0,17.0,81,0.00,,---,0.00,VWS V14.00,2013-07-07 18:35:00,
2013-07-07 14:40:00,86.1,79.2,30.22,SW,222,15.0,19.0,80,0.00,,---,0.00,VWS V14.00,2013-07-07 18:40:00,
2013-07-07 14:45:00,86.1,79.2,30.21,SW,230,11.0,19.0,80,0.00,,---,0.00,VWS V14.00,2013-07-07 18:45:00,
2013-07-07 14:50:00,86.2,78.9,30.21,SW,224,11.0,19.0,79,0.00,,---,0.00,VWS V14.00,2013-07-07 18:50:00,
2013-07-07 14:55:00,86.4,79.5,30.21,SW,231,8.0,19.0,80,0.00,,---,0.00,VWS V14.00,2013-07-07 18:55:00,
2013-07-07 15:00:00,86.4,79.5,30.21,SW,233,13.0,13.0,80,0.00,,---,0.00,VWS V14.00,2013-07-07 19:00:00,
2013-07-07 15:05:00,86.4,78.7,30.21,SW,233,17.0,18.0,78,0.00,,---,0.00,VWS V14.00,2013-07-07 19:05:00,
2013-07-07 15:10:00,86.4,78.3,30.21,SW,220,14.0,18.0,77,0.00,,---,0.00,VWS V14.00,2013-07-07 19:10:00,
2013-07-07 15:15:00,86.2,78.5,30.21,SW,233,15.0,18.0,78,0.00,,---,0.00,VWS V14.00,2013-07-07 19:15:00,
2013-07-07 15:20:00,86.3,78.2,30.20,SW,218,14.0,19.0,77,0.00,,---,0.00,VWS V14.00,2013-07-07 19:20:00,
2013-07-07 15:25:00,86.2,78.2,30.20,SW,231,12.0,19.0,77,0.00,,---,0.00,VWS V14.00,2013-07-07 19:25:00,
2013-07-07 15:30:00,86.3,78.2,30.20,SSW,206,12.0,14.0,77,0.00,,---,0.00,VWS V14.00,2013-07-07 19:30:00,
2013-07-07 15:35:00,86.1,78.4,30.20,SW,223,12.0,19.0,78,0.00,,---,0.00,VWS V14.00,2013-07-07 19:35:00,
2013-07-07 15:40:00,86.2,78.2,30.19,SSW,205,7.0,19.0,77,0.00,,---,0.00,VWS V14.00,2013-07-07 19:40:00,
2013-07-07 15:45:00,86.1,78.1,30.20,SW,221,16.0,19.0,77,0.00,,---,0.00,VWS V14.00,2013-07-07 19:45:00,
2013-07-07 15:50:00,86.2,77.8,30.20,SSW,208,10.0,19.0,76,0.00,,---,0.00,VWS V14.00,2013-07-07 19:50:00,
2013-07-07 15:55:00,86.3,78.2,30.19,SW,228,10.0,19.0,77,0.00,,---,0.00,VWS V14.00,2013-07-07 19:55:00,
2013-07-07 16:00:00,86.3,77.8,30.19,SW,224,14.0,18.0,76,0.00,,---,0.00,VWS V14.00,2013-07-07 20:00:00,
2013-07-07 16:05:00,86.1,78.1,30.19,SSW,212,8.0,18.0,77,0.00,,---,0.00,VWS V14.00,2013-07-07 20:05:00,
2013-07-07 16:10:00,86.0,77.9,30.18,SW,217,12.0,19.0,77,0.00,,---,0.00,VWS V14.00,2013-07-07 20:10:00,
2013-07-07 16:15:00,85.9,77.9,30.19,SSW,203,10.0,19.0,77,0.00,,---,0.00,VWS V14.00,2013-07-07 20:15:00,
2013-07-07 16:20:00,85.7,77.3,30.19,SW,218,12.0,19.0,76,0.00,,---,0.00,VWS V14.00,2013-07-07 20:20:00,
2013-07-07 16:25:00,85.6,77.6,30.19,SW,218,12.0,20.0,77,0.00,,---,0.00,VWS V14.00,2013-07-07 20:25:00,
2013-07-07 16:30:00,85.6,77.6,30.18,SW,215,15.0,17.0,77,0.00,,---,0.00,VWS V14.00,2013-07-07 20:30:00,
2013-07-07 16:35:00,85.6,78.0,30.17,WSW,240,14.0,18.0,78,0.00,,---,0.00,VWS V14.00,2013-07-07 20:35:00,
2013-07-07 16:40:00,85.7,78.1,30.18,SW,236,9.0,18.0,78,0.00,,---,0.00,VWS V14.00,2013-07-07 20:40:00,
2013-07-07 16:45:00,85.6,77.6,30.18,SW,214,9.0,18.0,77,0.00,,---,0.00,VWS V14.00,2013-07-07 20:45:00,
2013-07-07 16:50:00,85.6,78.3,30.18,SW,236,19.0,21.0,79,0.00,,---,0.00,VWS V14.00,2013-07-07 20:50:00,
2013-07-07 16:55:00,85.5,77.5,30.18,SSW,213,12.0,21.0,77,0.00,,---,0.00,VWS V14.00,2013-07-07 20:55:00,
2013-07-07 17:00:00,85.3,78.1,30.17,SW,215,14.0,15.0,79,0.00,,---,0.00,VWS V14.00,2013-07-07 21:00:00,
2013-07-07 17:05:00,85.3,78.1,30.17,SW,224,10.0,17.0,79,0.00,,---,0.00,VWS V14.00,2013-07-07 21:05:00,
2013-07-07 17:10:00,85.3,77.7,30.17,SW,214,11.0,18.0,78,0.00,,---,0.00,VWS V14.00,2013-07-07 21:10:00,
2013-07-07 17:15:00,85.2,77.9,30.17,SW,217,13.0,19.0,79,0.00,,---,0.00,VWS V14.00,2013-07-07 21:15:00,
2013-07-07 17:20:00,85.1,77.9,30.16,SW,228,17.0,19.0,79,0.00,,---,0.00,VWS V14.00,2013-07-07 21:20:00,
2013-07-07 17:25:00,84.9,77.7,30.16,SW,236,16.0,19.0,79,0.00,,---,0.00,VWS V14.00,2013-07-07 21:25:00,
2013-07-07 17:30:00,84.7,77.8,30.16,SW,223,11.0,15.0,80,0.00,,---,0.00,VWS V14.00,2013-07-07 21:30:00,
2013-07-07 17:35:00,84.7,77.5,30.16,SW,222,15.0,20.0,79,0.00,,---,0.00,VWS V14.00,2013-07-07 21:35:00,
2013-07-07 17:40:00,84.5,77.7,30.16,WSW,246,11.0,20.0,80,0.00,,---,0.00,VWS V14.00,2013-07-07 21:40:00,
2013-07-07 17:45:00,84.4,77.9,30.16,SSW,205,10.0,20.0,81,0.00,,---,0.00,VWS V14.00,2013-07-07 21:45:00,
2013-07-07 17:50:00,84.5,77.3,30.16,SW,233,16.0,20.0,79,0.00,,---,0.00,VWS V14.00,2013-07-07 21:50:00,
2013-07-07 17:55:00,84.3,77.5,30.16,SW,233,12.0,20.0,80,0.00,,---,0.00,VWS V14.00,2013-07-07 21:55:00,
2013-07-07 18:00:00,84.4,77.6,30.16,SW,226,9.0,11.0,80,0.00,,---,0.00,VWS V14.00,2013-07-07 22:00:00,
2013-07-07 18:05:00,84.3,77.1,30.15,SW,226,15.0,19.0,79,0.00,,---,0.00,VWS V14.00,2013-07-07 22:05:00,
2013-07-07 18:10:00,84.2,77.4,30.15,SW,236,16.0,19.0,80,0.00,,---,0.00,VWS V14.00,2013-07-07 22:10:00,
2013-07-07 18:15:00,84.0,77.2,30.15,SSW,208,12.0,19.0,80,0.00,,---,0.00,VWS V14.00,2013-07-07 22:15:00,
2013-07-07 18:20:00,83.9,77.1,30.16,SSW,204,12.0,19.0,80,0.00,,---,0.00,VWS V14.00,2013-07-07 22:20:00,
2013-07-07 18:25:00,83.8,77.0,30.15,WSW,238,16.0,19.0,80,0.00,,---,0.00,VWS V14.00,2013-07-07 22:25:00,
2013-07-07 18:30:00,83.8,77.7,30.16,SW,220,13.0,13.0,82,0.00,,---,0.00,VWS V14.00,2013-07-07 22:30:00,
2013-07-07 18:35:00,83.6,77.2,30.15,SSW,213,13.0,18.0,81,0.00,,---,0.00,VWS V14.00,2013-07-07 22:35:00,
2013-07-07 18:40:00,83.5,77.1,30.15,SW,216,8.0,18.0,81,0.00,,---,0.00,VWS V14.00,2013-07-07 22:40:00,
2013-07-07 18:45:00,83.5,77.4,30.15,SW,227,9.0,19.0,82,0.00,,---,0.00,VWS V14.00,2013-07-07 22:45:00,
2013-07-07 18:50:00,83.4,77.0,30.16,SW,222,9.0,19.0,81,0.00,,---,0.00,VWS V14.00,2013-07-07 22:50:00,
2013-07-07 18:55:00,83.3,77.2,30.15,SW,231,9.0,19.0,82,0.00,,---,0.00,VWS V14.00,2013-07-07 22:55:00,
2013-07-07 19:00:00,83.2,77.1,30.16,SSW,213,9.0,14.0,82,0.00,,---,0.00,VWS V14.00,2013-07-07 23:00:00,
2013-07-07 19:05:00,83.2,76.8,30.16,SSW,210,12.0,15.0,81,0.00,,---,0.00,VWS V14.00,2013-07-07 23:05:00,
2013-07-07 19:10:00,83.0,76.9,30.15,SW,228,12.0,16.0,82,0.00,,---,0.00,VWS V14.00,2013-07-07 23:10:00,
2013-07-07 19:15:00,82.9,77.2,30.16,SW,220,13.0,16.0,83,0.00,,---,0.00,VWS V14.00,2013-07-07 23:15:00,
2013-07-07 19:20:00,82.7,77.4,30.16,SW,214,8.0,16.0,84,0.00,,---,0.00,VWS V14.00,2013-07-07 23:20:00,
2013-07-07 19:25:00,82.7,78.1,30.16,SW,223,8.0,16.0,86,0.00,,---,0.00,VWS V14.00,2013-07-07 23:25:00,
2013-07-07 19:30:00,82.5,77.5,30.16,SW,228,9.0,11.0,85,0.00,,---,0.00,VWS V14.00,2013-07-07 23:30:00,
2013-07-07 19:35:00,82.4,77.4,30.16,SW,224,13.0,16.0,85,0.00,,---,0.00,VWS V14.00,2013-07-07 23:35:00,
2013-07-07 19:40:00,82.2,77.6,30.16,SW,220,10.0,16.0,86,0.00,,---,0.00,VWS V14.00,2013-07-07 23:40:00,
2013-07-07 19:45:00,81.9,76.9,30.16,SW,214,14.0,16.0,85,0.00,,---,0.00,VWS V14.00,2013-07-07 23:45:00,
2013-07-07 19:50:00,81.6,77.0,30.16,SW,222,14.0,16.0,86,0.00,,---,0.00,VWS V14.00,2013-07-07 23:50:00,
2013-07-07 19:55:00,81.4,77.2,30.16,SW,216,7.0,16.0,87,0.00,,---,0.00,VWS V14.00,2013-07-07 23:55:00,
2013-07-07 20:00:00,81.2,76.6,30.16,SSW,211,8.0,11.0,86,0.00,,---,0.00,VWS V14.00,2013-07-08 00:00:00,
2013-07-07 20:05:00,81.0,76.8,30.16,SW,221,13.0,15.0,87,0.00,,---,0.00,VWS V14.00,2013-07-08 00:05:00,
2013-07-07 20:10:00,80.8,76.9,30.16,SSW,210,13.0,15.0,88,0.00,,---,0.00,VWS V14.00,2013-07-08 00:10:00,
2013-07-07 20:15:00,80.7,77.5,30.17,SSW,210,8.0,16.0,90,0.00,,---,0.00,VWS V14.00,2013-07-08 00:15:00,
2013-07-07 20:20:00,80.6,77.4,30.17,SSW,209,9.0,17.0,90,0.00,,---,0.00,VWS V14.00,2013-07-08 00:20:00,
2013-07-07 20:25:00,80.4,76.9,30.16,SW,219,13.0,17.0,89,0.00,,---,0.00,VWS V14.00,2013-07-08 00:25:00,
2013-07-07 20:30:00,80.2,76.7,30.16,SW,216,11.0,14.0,89,0.00,,---,0.00,VWS V14.00,2013-07-08 00:30:00,
2013-07-07 20:35:00,80.1,76.6,30.17,SW,219,10.0,18.0,89,0.00,,---,0.00,VWS V14.00,2013-07-08 00:35:00,
2013-07-07 20:40:00,80.0,76.5,30.17,SW,223,14.0,18.0,89,0.00,,---,0.00,VWS V14.00,2013-07-08 00:40:00,
2013-07-07 20:45:00,79.9,76.4,30.17,SSW,207,13.0,18.0,89,0.00,,---,0.00,VWS V14.00,2013-07-08 00:45:00,
2013-07-07 20:50:00,79.8,76.9,30.17,SW,228,12.0,18.0,91,0.00,,---,0.00,VWS V14.00,2013-07-08 00:50:00,
2013-07-07 20:55:00,79.8,77.3,30.17,SW,228,12.0,18.0,92,0.00,,---,0.00,VWS V14.00,2013-07-08 00:55:00,
2013-07-07 21:00:00,79.8,76.9,30.17,SW,214,10.0,10.0,91,0.00,,---,0.00,VWS V14.00,2013-07-08 01:00:00,
2013-07-07 21:05:00,79.7,77.2,30.18,SW,230,13.0,16.0,92,0.00,,---,0.00,VWS V14.00,2013-07-08 01:05:00,
2013-07-07 21:10:00,79.7,77.5,30.18,SW,233,10.0,16.0,93,0.00,,---,0.00,VWS V14.00,2013-07-08 01:10:00,
2013-07-07 21:15:00,79.6,76.8,30.18,SW,223,17.0,18.0,91,0.00,,---,0.00,VWS V14.00,2013-07-08 01:15:00,
2013-07-07 21:20:00,79.6,77.4,30.18,SW,215,9.0,18.0,93,0.00,,---,0.00,VWS V14.00,2013-07-08 01:20:00,
2013-07-07 21:25:00,79.5,77.0,30.19,SW,219,12.0,18.0,92,0.00,,---,0.00,VWS V14.00,2013-07-08 01:25:00,
2013-07-07 21:30:00,79.5,77.0,30.19,SW,226,10.0,11.0,92,0.00,,---,0.00,VWS V14.00,2013-07-08 01:30:00,
2013-07-07 21:35:00,79.4,77.2,30.18,SW,226,12.0,15.0,93,0.00,,---,0.00,VWS V14.00,2013-07-08 01:35:00,
2013-07-07 21:40:00,79.4,77.2,30.19,SW,227,12.0,17.0,93,0.00,,---,0.00,VWS V14.00,2013-07-08 01:40:00,
2013-07-07 21:45:00,79.3,77.1,30.19,SSW,196,10.0,17.0,93,0.00,,---,0.00,VWS V14.00,2013-07-08 01:45:00,
2013-07-07 21:50:00,79.3,77.1,30.19,SW,221,12.0,17.0,93,0.00,,---,0.00,VWS V14.00,2013-07-08 01:50:00,
2013-07-07 21:55:00,79.2,76.3,30.20,SW,225,11.0,17.0,91,0.00,,---,0.00,VWS V14.00,2013-07-08 01:55:00,
2013-07-07 22:00:00,79.1,76.6,30.20,SSW,208,10.0,10.0,92,0.00,,---,0.00,VWS V14.00,2013-07-08 02:00:00,
2013-07-07 22:05:00,79.0,75.8,30.20,SSW,210,11.0,15.0,90,0.00,,---,0.00,VWS V14.00,2013-07-08 02:05:00,
2013-07-07 22:10:00,78.9,75.7,30.20,SW,221,12.0,16.0,90,0.00,,---,0.00,VWS V14.00,2013-07-08 02:10:00,
2013-07-07 22:15:00,78.9,75.7,30.20,SW,218,10.0,16.0,90,0.00,,---,0.00,VWS V14.00,2013-07-08 02:15:00,
2013-07-07 22:20:00,78.9,75.4,30.20,SSW,213,9.0,16.0,89,0.00,,---,0.00,VWS V14.00,2013-07-08 02:20:00,
2013-07-07 22:25:00,78.8,75.3,30.21,SW,230,12.0,17.0,89,0.00,,---,0.00,VWS V14.00,2013-07-08 02:25:00,
2013-07-07 22:30:00,78.8,75.6,30.21,SW,231,8.0,10.0,90,0.00,,---,0.00,VWS V14.00,2013-07-08 02:30:00,
2013-07-07 22:35:00,78.7,75.5,30.21,SW,230,11.0,15.0,90,0.00,,---,0.00,VWS V14.00,2013-07-08 02:35:00,
2013-07-07 22:40:00,78.8,75.6,30.21,SW,221,8.0,16.0,90,0.00,,---,0.00,VWS V14.00,2013-07-08 02:40:00,
2013-07-07 22:45:00,78.7,76.2,30.21,SW,228,10.0,16.0,92,0.00,,---,0.00,VWS V14.00,2013-07-08 02:45:00,
2013-07-07 22:50:00,78.7,76.2,30.21,SSW,212,10.0,16.0,92,0.00,,---,0.00,VWS V14.00,2013-07-08 02:50:00,
2013-07-07 22:55:00,78.7,76.5,30.21,SW,227,12.0,16.0,93,0.00,,---,0.00,VWS V14.00,2013-07-08 02:55:00,
2013-07-07 23:00:00,78.7,76.2,30.21,SW,227,12.0,12.0,92,0.00,,---,0.00,VWS V14.00,2013-07-08 03:00:00,
2013-07-07 23:05:00,78.6,76.7,30.21,SW,232,7.0,14.0,94,0.00,,---,0.00,VWS V14.00,2013-07-08 03:05:00,
2013-07-07 23:10:00,78.7,76.5,30.21,SW,232,12.0,14.0,93,0.00,,---,0.00,VWS V14.00,2013-07-08 03:10:00,
2013-07-07 23:15:00,78.6,76.4,30.21,SSW,213,9.0,16.0,93,0.00,,---,0.00,VWS V14.00,2013-07-08 03:15:00,
2013-07-07 23:20:00,78.6,76.7,30.21,SW,219,10.0,16.0,94,0.00,,---,0.00,VWS V14.00,2013-07-08 03:20:00,
2013-07-07 23:25:00,78.7,76.8,30.21,SW,233,10.0,16.0,94,0.00,,---,0.00,VWS V14.00,2013-07-08 03:25:00,
2013-07-07 23:30:00,78.7,77.2,30.22,SW,226,13.0,14.0,95,0.00,,---,0.00,VWS V14.00,2013-07-08 03:30:00,
2013-07-07 23:35:00,78.6,76.7,30.22,SW,225,8.0,16.0,94,0.00,,---,0.00,VWS V14.00,2013-07-08 03:35:00,
2013-07-07 23:40:00,78.6,76.7,30.21,SSW,207,11.0,16.0,94,0.00,,---,0.00,VWS V14.00,2013-07-08 03:40:00,
2013-07-07 23:45:00,78.6,76.7,30.22,SW,226,11.0,16.0,94,0.00,,---,0.00,VWS V14.00,2013-07-08 03:45:00,
2013-07-07 23:50:00,78.6,76.7,30.22,SW,231,10.0,16.0,94,0.00,,---,0.00,VWS V14.00,2013-07-08 03:50:00,
2013-07-07 23:55:00,78.6,77.1,30.22,SW,230,12.0,16.0,95,0.00,,---,0.00,VWS V14.00,2013-07-08 03:55:00,